CDT,Max TemperatureF,Mean TemperatureF,Min TemperatureF,Max Dew PointF,MeanDew PointF,Min DewpointF,Max Humidity, Mean Humidity, Min Humidity, Max Sea Level PressureIn, Mean Sea Level PressureIn, Min Sea Level PressureIn, Max VisibilityMiles, Mean VisibilityMiles, Min VisibilityMiles, Max Wind SpeedMPH, Mean Wind SpeedMPH, Max Gust SpeedMPH,PrecipitationIn, CloudCover, Events, WindDirDegrees
2012-10-1,62,54,44,48,47,39,87,69,55,29.92,29.87,29.82,10,9,0,15,7,20,0.00,5,,302
2012-10-2,66,48,30,43,32,25,93,61,24,29.97,29.91,29.84,10,7,0,9,2,,0.00,1,,139
2012-10-3,51,37,37,34,31,30,75,67,50,29.91,29.90,29.90,10,10,10,8,2,,0.00,0,,0
2012-10-4,,,,,,,,,,,,,,,,,,,,,,
2012-10-5,,,,,,,,,,,,,,,,,,,,,,
2012-10-6,,,,,,,,,,,,,,,,,,,,,,
2012-10-7,,,,,,,,,,,,,,,,,,,,,,
2012-10-8,,,,,,,,,,,,,,,,,,,,,,
2012-10-9,,,,,,,,,,,,,,,,,,,,,,
2012-10-10,42,36,30,28,23,19,86,58,39,29.96,29.93,29.86,10,10,7,21,12,26,0.00,6,,274
2012-10-11,39,34,30,34,28,25,93,76,56,30.28,30.02,29.85,10,8,0,18,7,25,0.28,7,,272
2012-10-12,46,35,24,28,22,18,93,59,32,30.40,30.28,30.07,10,10,10,12,5,20,0.00,1,,213
2012-10-13,48,44,39,41,34,18,87,72,36,30.06,29.83,29.70,10,8,0,15,7,25,0.01,8,,180
2012-10-14,42,40,39,39,37,36,93,84,76,29.79,29.75,29.69,10,7,2,14,6,23,0.05,8,,14
2012-10-15,50,42,33,34,31,27,87,68,40,29.90,29.85,29.79,10,10,7,7,3,,0.00,5,,329
2012-10-16,60,53,46,48,41,32,82,70,54,29.78,29.56,29.42,10,10,8,17,9,24,0.16,6,,170
2012-10-17,64,56,48,50,46,39,88,74,56,29.42,29.27,29.16,10,10,6,18,6,25,0.05,4,,153
2012-10-18,51,48,44,46,43,39,93,83,71,29.40,29.21,29.10,10,9,2,10,3,,0.71,7,,220
2012-10-19,48,42,35,41,37,32,93,78,62,29.68,29.57,29.40,10,9,0,9,5,,0.04,6,,54
2012-10-20,51,42,33,39,37,28,93,80,62,29.81,29.75,29.67,10,7,0,6,2,,0.00,5,,263
2012-10-21,60,45,30,41,36,27,93,66,45,29.93,29.88,29.82,10,10,2,13,3,16,0.00,1,,177
2012-10-22,55,48,41,45,41,37,87,75,62,30.04,29.99,29.93,10,9,0,15,4,20,0.00,2,,56
2012-10-23,59,52,46,54,48,41,94,84,76,29.99,29.84,29.76,10,9,2,18,9,26,0.22,8,Thunderstorm,110
2012-10-24,60,53,46,55,52,45,94,87,82,29.84,29.77,29.68,10,3,0,22,5,25,0.48,8,Thunderstorm,19
2012-10-25,48,40,33,46,38,27,93,85,75,29.92,29.69,29.54,10,6,0,18,9,29,0.85,8,,311
2012-10-26,39,35,33,27,22,19,75,61,48,30.24,30.14,29.93,10,10,10,20,14,30,0.00,7,,253
2012-10-27,39,32,24,23,19,16,80,58,39,30.31,30.26,30.23,10,10,10,12,6,,0.00,5,,257
2012-10-28,44,32,19,23,19,14,93,65,34,30.33,30.30,30.27,10,10,8,10,2,16,0.00,3,,173
2012-10-29,46,32,19,27,21,14,93,68,37,30.35,30.31,30.25,10,10,10,9,1,,0.00,0,,41
2012-10-30,37,30,24,27,22,18,86,64,52,30.25,30.13,29.99,10,10,10,14,6,23,0.00,4,,22
2012-10-31,37,30,23,25,20,16,74,63,44,29.98,29.91,29.84,10,10,10,14,7,16,0.00,4,,328